sat.trackr.live / text

‹ back to catalog

STARLINK-37749

NORAD 69651 · 2026-143C

PAYLOAD ACTIVE UNKNOWN

§ Identity

Operator
Country
US
Launch date
2026-06-21
Launch site
AFWTR
Launch vehicle
Mass (kg)
RCS (m²)

Purposes: comms

External: N2YO · Heavens-Above · Gunter

§ Orbital elements

Epoch: 2026-09-19T21:48:55.350144Z

Period
93.91 min
Inclination
97.2847°
Eccentricity
0.0001217
Mean motion
15.33447604 rev/d
Perigee alt
464.7 km
Apogee alt
466.4 km
Semi-major
6,843.7 km
B*
4.1485e-4
RAAN
306.1311°
Arg perigee
87.7512°
Mean anomaly
272.3870°
Rev number
1,512

§ Raw data

STARLINK-377491 69651U 26143C   26262.90897396  .00013343  00000+0  41485-3 0  99902 69651  97.2847 306.1311 0001217  87.7512 272.3870 15.33447604 15127

JSON: /api/v1/satellites/69651 · /tle

For live sub-satellite position, see the globe view (requires WebGL).

§ Visibility from observer

Set your observer location to see the next 7 days of passes ≥ 10°. The values pass through the URL so the page stays shareable.

No JS? Fill the form by hand. The geolocation button needs JavaScript.